Location: Sceptre
(50.8619°N, 109.2670°W)
Time: 19:49:18
(UTC+00:00)

SEEDS - Pass Details

Date: 05 July 2022
Orbit: 579 x 598 km, 97.6° (Epoch: 08 August)

Event Time Altitude Azimuth Distance (km) Brightness Sun altitude
Rises 10:17:01 0° 30° (NNE) 2,814 ? -6.9°
Reaches altitude 10° 10:20:18 10° 58° (ENE) 1,905 ? -6.5°
Maximum altitude 10:22:17 13° 87° (E) 1,703 ? -6.3°
Drops below altitude 10° 10:24:15 10° 116° (ESE) 1,897 ? -6.1°
Sets 10:27:29 0° 144° (SE) 2,789 ? -5.8°
